Location: Unspecified
(0.0000°N, 0.0000°E)
Time: 03:51:18
(UTC+02:00)

ISS - All Passes

Search period start: 01 September 2015 00:00
Search period end: 11 September 2015 00:00
Orbit: 401 x 402 km, 51.6° (Epoch: 31 August)

Date Brightness Start Highest point End Pass type
(mag) Time Alt. Az. Time Alt. Az. Time Alt. Az.
01 Sep - 07:08:27 10° S 07:11:24 32° SE 07:14:22 10° ENE visible
01 Sep - 18:42:20 10° N 18:44:43 19° NE 18:47:11 10° ESE daylight
01 Sep - 20:19:38 10° WSW 20:21:03 12° SW 20:22:18 10° SSW visible
02 Sep - 06:16:47 10° SSE 06:18:06 12° SE 06:19:35 10° E visible
02 Sep - 07:51:59 10° WSW 07:54:26 19° NW 07:56:48 10° N daylight
02 Sep - 19:24:48 10° WNW 19:27:45 31° SW 19:30:40 10° S daylight
03 Sep - 06:57:59 10° SW 07:01:11 56° NW 07:04:21 10° NNE visible
03 Sep - 18:31:17 10° NNW 18:34:30 78° NE 18:37:45 10° SE daylight
04 Sep - 06:04:51 10° SSW 06:07:57 42° SE 06:11:03 10° NE visible
04 Sep - 17:38:35 10° N 17:41:16 24° NE 17:44:00 10° ESE daylight
05 Sep - 05:12:42 10° SSE 05:14:39 15° SE 05:16:43 10° E night (unlit)
05 Sep - 06:48:54 10° W 06:50:58 15° NW 06:52:54 10° NNW visible
05 Sep - 18:21:31 10° WNW 18:24:15 25° SW 18:26:58 10° S daylight
06 Sep - 05:54:34 10° SW 05:57:40 42° NW 06:00:45 10° NNE visible
06 Sep - 17:27:46 10° NW 17:30:59 79° SW 17:34:14 10° SSE daylight
07 Sep - 05:01:13 10° SSW 05:04:25 56° SE 05:07:36 10° NE night (unlit)
07 Sep - 16:34:49 10° N 16:37:44 31° NE 16:40:40 10° ESE daylight
08 Sep - 04:08:44 10° S 04:11:07 19° SE 04:13:33 10° ENE night (unlit)
08 Sep - 05:45:57 10° W 05:47:25 12° NW 05:48:44 10° NNW night (unlit)
08 Sep - 15:43:11 10° NNE 15:44:23 12° NE 15:45:44 10° ENE daylight
08 Sep - 17:18:14 10° WNW 17:20:42 20° SW 17:23:06 10° S daylight
09 Sep - 04:51:07 10° WSW 04:54:05 32° NW 04:57:01 10° N night (unlit)
09 Sep - 16:24:12 10° NW 16:27:23 58° SW 16:30:35 10° SSE daylight
10 Sep - 03:57:33 10° SSW 04:00:48 76° SE 04:04:01 10° NE night (unlit)
10 Sep - 15:31:03 10° NNW 15:34:06 40° NE 15:37:10 10° SE daylight
